Wind_Speed
33 33 34 35 36 37 37 38 38 38 38 37 37 37 37 37 37 37 37 37 37 38 39 39 39 40 41 41 42 42 41 41 40 41 42 42 42 42 43 44 45 45 44
35 35 36 37 38 38 39 40 40 39 39 39 38 37 37 37 37 37 37 37 37 38 39 39 40 41 42 42 42 43 43 43 42 42 43 43 44 43 44 45 46 46 45
37 37 38 39 39 40 41 41 41 40 40 40 38 37 37 36 37 37 37 36 37 37 38 39 40 41 42 43 44 44 45 45 44 43 44 44 44 45 45 45 47 48 47
38 39 39 40 41 41 42 42 42 41 41 40 39 38 37 37 37 36 36 36 36 37 38 39 40 41 42 44 45 45 46 47 47 46 46 46 46 46 45 46 47 48 48
39 40 41 42 42 43 43 43 43 42 41 40 39 39 38 37 37 36 36 37 37 37 37 38 40 41 42 44 45 46 47 48 48 48 49 49 48 47 47 46 47 49 50
40 41 42 43 43 44 44 44 44 43 42 41 40 39 38 38 37 37 37 37 37 37 38 39 40 41 42 44 45 47 48 49 49 49 50 51 49 51 49 46 47 48 50
41 42 43 43 44 44 45 45 44 44 43 42 41 40 39 38 38 38 37 37 36 37 37 38 39 40 41 43 45 47 49 51 52 52 51 52 51 52 52 49 47 47 50
42 43 43 44 44 45 45 45 45 44 43 42 41 40 39 39 38 37 37 36 36 36 37 38 38 39 40 42 44 46 49 52 53 54 53 54 55 53 53 51 49 48 50
43 44 44 44 45 46 46 46 45 44 43 42 41 40 39 39 38 37 36 35 35 35 36 37 37 38 39 41 43 45 48 51 54 55 56 56 57 57 55 53 52 51 50
43 44 45 45 46 46 47 46 45 44 43 42 41 41 40 38 37 36 36 35 34 33 34 34 35 36 37 39 42 44 46 50 54 56 57 57 58 59 56 55 54 53 51
44 45 46 47 47 47 47 46 45 44 43 42 41 40 39 38 37 36 35 34 32 31 31 31 31 33 34 36 39 42 46 49 53 56 57 59 60 60 59 57 55 55 53
46 46 47 47 48 47 46 46 45 43 42 41 40 39 39 38 37 35 34 32 31 29 28 28 28 30 32 34 37 40 44 47 51 54 57 58 60 61 60 58 56 56 54
47 48 48 48 48 47 46 45 44 43 41 41 40 39 38 37 36 33 31 30 28 27 25 25 25 26 27 29 33 36 41 45 48 52 55 57 59 61 62 60 58 58 55
49 49 49 49 48 47 46 45 43 41 40 40 39 38 37 36 34 31 29 27 26 24 23 22 22 21 22 24 27 30 35 41 46 50 53 55 58 60 62 61 59 58 57
50 50 50 48 47 46 45 44 42 40 39 39 38 37 36 34 33 30 27 25 24 22 20 18 17 16 17 19 22 25 30 34 40 45 49 52 55 57 60 61 60 59 58
51 50 49 47 46 44 44 42 41 39 39 38 37 36 34 33 31 29 26 23 22 20 16 15 13 13 13 13 16 20 24 29 35 40 45 48 52 55 58 59 59 59 57
51 50 48 46 45 43 42 40 38 37 37 37 36 35 33 31 29 27 24 22 20 18 14 13 11 10 9 9 12 16 21 25 30 35 40 44 48 52 55 57 57 58 57
51 49 48 46 43 41 40 39 37 36 35 35 34 33 31 30 27 25 23 21 19 16 13 11 10 8 7 7 9 12 17 22 26 31 35 39 44 48 52 54 55 56 56
50 48 46 44 41 39 38 37 36 35 34 33 32 31 30 28 26 24 22 20 18 15 13 10 8 7 5 5 6 9 14 19 23 27 31 35 40 45 49 52 53 54 55
50 47 44 41 39 37 36 35 34 33 32 32 30 29 28 26 25 23 21 19 17 15 11 9 7 5 4 3 4 7 12 15 19 24 28 33 38 42 46 48 51 53 54
48 45 41 39 37 35 34 33 32 31 30 30 29 27 26 25 24 23 20 18 16 13 10 7 5 4 2 1 3 6 9 13 16 21 25 31 36 39 42 45 48 51 53
45 42 39 37 35 33 32 31 30 29 29 28 27 26 25 24 23 22 20 18 15 12 9 6 4 3 1 2 4 6 9 12 14 18 23 29 33 37 40 43 45 47 50
42 39 37 34 32 31 30 29 28 27 27 26 25 24 23 22 21 20 19 17 15 12 9 6 5 3 1 3 4 6 8 11 13 16 20 25 30 34 36 39 43 45 46
39 37 34 32 30 29 28 27 25 25 25 24 24 23 21 20 19 19 18 17 14 11 9 7 5 2 1 3 5 6 8 10 13 16 19 23 28 32 34 37 41 43 43
37 34 31 29 28 27 26 24 23 23 22 22 22 21 20 18 18 18 17 16 14 12 8 6 4 2 1 3 5 6 7 9 13 15 18 22 25 28 32 35 38 40 41
34 31 28 27 26 24 23 22 21 20 20 20 20 19 18 17 16 16 16 15 14 12 9 6 3 1 2 3 4 5 7 9 11 14 17 20 22 25 29 32 35 38 39
Wind_Direction
335 333 333 332 331 330 329 327 325 322 319 315 311 306 302 297 292 289 284 280 276 271 268 263 258 254 251 249 247 244 241 237 234 233 232 231 227 225 223 221 221 221 220
334 334 332 332 331 330 329 327 326 323 320 316 312 307 303 299 295 291 286 281 277 273 268 264 259 255 251 249 247 244 241 237 233 231 231 231 228 226 222 220 219 219 218
334 333 332 331 330 330 329 327 326 323 321 317 313 309 305 300 296 292 287 282 278 273 269 265 260 255 252 249 246 243 241 238 234 230 229 229 228 225 223 221 219 218 217
333 332 332 331 330 329 329 328 326 324 322 318 314 311 307 303 299 294 289 285 280 275 270 266 261 257 252 249 246 243 240 237 234 230 228 227 227 224 222 221 219 217 216
333 332 332 331 330 329 329 327 325 324 322 318 315 312 309 305 301 296 292 287 282 277 272 267 263 258 253 249 246 242 239 236 233 230 228 227 225 223 221 221 219 217 216
332 332 332 331 330 329 329 327 325 323 321 319 316 313 310 307 302 298 293 289 284 279 273 269 264 259 255 250 245 242 238 235 232 230 227 226 225 223 220 220 220 218 216
332 332 332 331 330 329 328 327 325 323 321 319 317 314 311 308 305 301 296 292 287 282 276 271 266 260 256 251 245 241 238 235 231 229 226 224 223 223 220 218 219 219 217
331 331 331 331 330 330 328 327 325 324 322 320 318 316 313 310 307 304 299 295 289 284 278 272 266 262 257 252 247 242 238 234 231 229 226 224 222 221 220 218 216 219 218
330 330 330 330 330 329 329 327 326 325 323 321 320 318 315 313 309 305 301 298 294 288 281 274 267 262 257 252 247 242 237 233 230 227 225 223 222 220 218 217 216 216 218
330 330 330 329 329 328 328 327 326 326 324 323 321 320 318 315 312 308 304 301 297 291 285 278 270 263 257 252 246 240 237 233 230 227 225 222 222 220 218 217 216 215 216
330 329 329 328 328 328 328 327 327 326 325 324 323 322 321 318 315 311 308 304 299 294 289 282 273 265 259 253 246 240 236 232 228 225 223 222 221 219 218 216 216 216 214
330 329 329 328 328 328 328 328 328 327 327 326 325 324 323 321 319 315 311 308 303 299 293 285 276 268 262 255 247 241 235 231 228 224 222 220 219 218 216 215 216 215 214
330 329 329 329 328 328 328 328 329 329 328 328 327 326 326 324 322 319 315 311 307 302 297 290 281 272 264 256 248 241 235 230 226 223 220 219 218 216 214 214 214 214 214
329 328 328 329 329 328 328 329 329 329 329 329 329 329 329 327 325 322 319 316 313 307 303 297 287 275 266 257 247 239 233 227 224 221 219 217 217 216 213 212 212 212 212
327 327 328 328 329 329 329 330 330 330 330 331 331 331 332 331 329 327 325 322 319 315 309 303 293 284 273 260 246 236 229 223 220 219 218 217 215 214 213 211 211 211 211
327 327 328 328 329 329 330 331 331 331 332 332 333 334 334 334 333 331 329 327 326 322 316 310 302 293 279 259 240 229 223 219 217 216 216 215 214 213 212 210 210 210 210
327 327 328 328 328 328 330 331 331 331 332 333 334 335 337 337 337 336 333 331 330 328 322 316 310 301 287 261 236 222 216 214 213 212 212 212 212 211 210 210 210 209 209
325 326 327 327 328 329 329 331 331 332 333 334 336 338 339 340 340 340 338 336 335 332 327 322 316 307 290 264 234 219 213 209 209 209 209 209 209 209 208 208 208 208 207
324 325 326 326 327 328 329 331 331 332 334 335 337 340 341 342 342 342 342 341 339 336 331 326 323 315 301 271 238 217 208 204 203 204 204 206 206 206 206 207 206 207 207
321 323 324 325 326 327 328 330 330 331 333 335 337 340 342 343 344 344 345 344 342 339 334 331 328 321 303 258 232 213 204 201 200 199 201 203 202 202 203 204 205 206 208
319 320 321 323 325 325 327 329 329 330 332 335 337 340 343 344 346 346 347 346 346 345 339 334 332 325 314 216 207 200 195 196 197 198 198 198 198 199 201 202 204 204 206
316 318 319 321 322 323 325 327 328 329 331 334 336 339 342 344 347 349 349 348 350 350 348 342 338 334 266 197 190 196 195 194 195 195 197 198 199 199 200 202 203 204 206
313 315 316 317 319 321 323 325 326 328 330 332 335 338 340 343 347 351 353 353 352 353 351 347 337 324 261 205 192 192 192 195 195 196 195 196 198 199 200 201 200 202 204
310 311 312 313 315 318 321 323 324 327 329 332 334 337 339 343 346 349 352 353 353 352 351 348 339 321 232 201 197 191 189 189 190 192 191 191 195 197 199 200 199 200 203
307 307 307 308 311 314 317 319 321 324 328 331 334 337 339 341 345 349 352 353 352 349 346 344 336 318 237 197 189 187 187 187 188 190 189 189 192 194 196 197 198 200 202
302 303 303 304 308 310 313 314 316 320 325 329 333 336 339 343 346 348 351 354 355 355 354 354 348 313 202 185 185 187 188 185 183 187 189 189 191 193 195 196 198 200 202
Height
5785 5779 5774 5769 5763 5758 5752 5746 5741 5735 5730 5725 5720 5715 5711 5708 5704 5702 5700 5699 5698 5697 5698 5699 5700 5702 5705 5707 5711 5715 5719 5724 5730 5734 5738 5743 5748 5754 5760 5766 5773 5779 5786
5779 5773 5767 5762 5756 5750 5744 5738 5732 5726 5721 5715 5710 5705 5700 5696 5693 5690 5688 5686 5685 5685 5685 5686 5687 5689 5692 5695 5699 5703 5707 5712 5719 5724 5728 5733 5738 5744 5750 5757 5763 5770 5777
5772 5767 5761 5755 5748 5742 5736 5730 5724 5717 5711 5705 5700 5694 5690 5686 5682 5678 5676 5674 5673 5672 5672 5672 5674 5676 5679 5682 5685 5690 5695 5700 5706 5713 5718 5722 5728 5734 5740 5747 5753 5760 5768
5766 5760 5754 5747 5741 5734 5728 5721 5714 5708 5701 5695 5689 5684 5679 5674 5670 5666 5664 5662 5660 5659 5658 5659 5660 5662 5664 5668 5672 5676 5681 5687 5693 5700 5706 5712 5718 5724 5730 5737 5744 5750 5758
5759 5753 5746 5740 5733 5726 5719 5712 5705 5698 5692 5685 5679 5673 5668 5663 5659 5655 5652 5649 5647 5645 5645 5645 5645 5647 5649 5653 5657 5662 5667 5673 5680 5687 5694 5700 5707 5713 5720 5727 5734 5740 5748
5752 5746 5739 5732 5725 5718 5710 5703 5696 5689 5682 5675 5669 5663 5657 5652 5647 5643 5639 5636 5633 5632 5631 5630 5631 5632 5634 5637 5642 5647 5652 5659 5666 5673 5681 5688 5695 5702 5709 5716 5723 5731 5739
5745 5738 5732 5724 5717 5709 5702 5694 5687 5679 5672 5665 5659 5652 5646 5641 5635 5630 5626 5623 5620 5618 5616 5616 5616 5617 5619 5622 5626 5631 5637 5644 5652 5660 5667 5675 5683 5691 5698 5706 5713 5721 5729
5738 5731 5724 5716 5709 5701 5693 5685 5677 5670 5662 5655 5648 5642 5635 5629 5623 5618 5613 5610 5606 5604 5602 5601 5601 5602 5603 5606 5610 5616 5622 5629 5637 5645 5654 5662 5669 5678 5686 5695 5702 5711 5718
5731 5723 5716 5708 5701 5693 5685 5676 5668 5660 5653 5645 5638 5631 5624 5618 5612 5606 5601 5597 5593 5590 5587 5586 5586 5587 5588 5591 5595 5600 5606 5613 5620 5629 5638 5647 5656 5665 5674 5683 5692 5700 5708
5723 5716 5708 5700 5692 5684 5676 5668 5659 5651 5643 5635 5628 5621 5614 5607 5601 5595 5590 5585 5581 5577 5574 5572 5571 5572 5573 5575 5579 5585 5591 5597 5604 5613 5623 5632 5642 5651 5661 5671 5681 5690 5699
5716 5708 5700 5692 5684 5676 5668 5659 5651 5643 5635 5627 5619 5611 5604 5597 5591 5584 5579 5573 5569 5565 5562 5560 5558 5558 5559 5561 5565 5569 5575 5581 5588 5597 5607 5617 5627 5638 5649 5659 5669 5679 5689
5709 5701 5693 5684 5676 5668 5659 5651 5642 5634 5626 5618 5610 5602 5595 5587 5581 5574 5568 5563 5558 5555 5551 5549 5547 5546 5547 5548 5551 5555 5560 5566 5574 5583 5593 5604 5614 5626 5636 5647 5657 5668 5678
5701 5693 5685 5676 5667 5659 5651 5642 5634 5626 5618 5610 5602 5595 5587 5579 5572 5565 5559 5553 5549 5545 5541 5539 5537 5535 5535 5536 5537 5541 5546 5552 5561 5570 5580 5591 5601 5612 5622 5634 5646 5657 5667
5693 5685 5677 5668 5659 5651 5642 5634 5626 5619 5611 5603 5595 5587 5579 5572 5564 5557 5551 5546 5541 5537 5533 5530 5528 5526 5525 5525 5527 5529 5534 5540 5548 5557 5567 5577 5587 5598 5611 5623 5635 5646 5657
5685 5677 5669 5660 5652 5643 5635 5626 5619 5611 5603 5596 5588 5581 5573 5566 5558 5551 5545 5539 5534 5530 5526 5523 5521 5519 5518 5517 5518 5521 5525 5531 5538 5546 5556 5566 5577 5588 5600 5612 5625 5636 5648
5676 5668 5660 5652 5644 5636 5628 5620 5611 5604 5597 5589 5582 5575 5567 5560 5552 5546 5540 5535 5530 5525 5522 5519 5517 5515 5513 5513 5513 5515 5519 5525 5531 5539 5548 5557 5568 5579 5590 5603 5615 5627 5638
5668 5660 5652 5644 5637 5629 5622 5614 5607 5600 5591 5584 5577 5569 5562 5555 5548 5542 5536 5531 5526 5522 5518 5516 5513 5512 5510 5510 5510 5512 5516 5520 5526 5533 5542 5550 5560 5571 5581 5594 5606 5618 5629
5659 5652 5644 5637 5629 5622 5615 5608 5601 5594 5588 5580 5573 5565 5558 5551 5545 5539 5533 5528 5524 5520 5516 5513 5511 5510 5508 5508 5508 5510 5513 5517 5523 5529 5537 5545 5554 5564 5575 5586 5599 5610 5622
5650 5644 5637 5629 5622 5616 5609 5603 5596 5589 5583 5576 5569 5562 5555 5549 5543 5537 5531 5526 5522 5518 5515 5512 5510 5509 5508 5507 5508 5509 5511 5515 5520 5526 5533 5541 5550 5559 5569 5581 5592 5603 5614
5642 5636 5629 5623 5616 5610 5603 5597 5591 5585 5578 5572 5566 5559 5553 5547 5541 5535 5530 5525 5521 5517 5514 5511 5510 5508 5507 5507 5508 5509 5511 5515 5519 5524 5530 5538 5546 5555 5564 5575 5586 5597 5608
5634 5628 5622 5616 5610 5604 5598 5592 5586 5580 5575 5569 5563 5557 5551 5545 5539 5534 5528 5524 5520 5516 5513 5511 5510 5509 5508 5508 5509 5510 5512 5515 5518 5523 5528 5535 5543 5551 5561 5570 5581 5591 5602
5625 5619 5614 5609 5603 5598 5593 5588 5582 5576 5571 5565 5560 5554 5549 5544 5538 5533 5528 5523 5519 5516 5513 5512 5510 5509 5509 5509 5510 5511 5513 5515 5519 5523 5528 5534 5541 5548 5557 5566 5576 5586 5596
5616 5611 5606 5602 5597 5592 5588 5583 5578 5573 5567 5562 5557 5552 5547 5542 5537 5533 5528 5523 5519 5516 5514 5512 5511 5510 5510 5510 5511 5512 5513 5516 5519 5522 5527 5532 5539 5546 5555 5563 5572 5582 5592
5607 5603 5599 5595 5591 5587 5582 5578 5574 5569 5564 5559 5555 5550 5545 5541 5536 5532 5527 5523 5520 5516 5514 5512 5511 5510 5510 5511 5512 5513 5515 5517 5519 5523 5527 5532 5538 5545 5552 5561 5569 5578 5587
5598 5595 5591 5588 5584 5581 5577 5573 5569 5565 5561 5557 5552 5548 5544 5539 5535 5531 5527 5523 5520 5517 5514 5512 5511 5511 5511 5511 5512 5514 5516 5518 5520 5523 5527 5532 5537 5543 5550 5558 5566 5574 5583
5589 5586 5583 5580 5577 5575 5572 5568 5565 5562 5558 5554 5550 5546 5542 5538 5535 5531 5527 5523 5520 5517 5514 5513 5511 5511 5511 5512 5513 5514 5516 5518 5521 5524 5527 5532 5537 5542 5549 5556 5563 5571 5579